Weather History for Shoreham, United Kingdom

Change the Weather History Date:

Tuesday, November 27, 2012

  Actual Average Record
Temperature  
Mean Temperature 46 °F -  
Max Temperature 47 °F 46 °F 57 °F (2006)
Min Temperature 43 °F 39 °F 30 °F (2010)
Degree Days  
Heating Degree Days 20    
Moisture  
Dew Point 43 °F    
Average Humidity 89    
Maximum Humidity 93    
Minimum Humidity 74    
Precipitation  
Precipitation 0.08 in - - ()
Sea Level Pressure  
Sea Level Pressure 29.63 in    
Wind  
Wind Speed 8 mph ()    
Max Wind Speed 18 mph    
Max Gust Speed 26 mph    
Visibility 4.7 miles    
Events Rain    
Averages and records for this station are not official NWS values.
T = Trace of Precipitation, MM = Missing Value Source: Averaged Metar Reports

Daily Weather History Graph

Daily Weather History Graph

Search for Another Location

Airport:

Trip Planner

Search our weather history database for the weather conditions in past years. The results will help you decide how hot, cold, wet, or windy it might be!

Date:

Astronomy

Nov. 27, 2012 Rise Set
Actual Time 7:36 AM GMT 4:01 PM GMT
Civil Twilight 6:58 AM GMT 4:39 PM GMT
Nautical Twilight 6:17 AM GMT 5:20 PM GMT
Astronomical Twilight 5:37 AM GMT 5:59 PM GMT
Moon 3:25 PM GMT (11/27) 6:24 AM GMT (11/27)
Length of Visible Light 9h 40m
Length of Day
8h 24m
Waxing Gibbous, 99% of the Moon is Illuminated
Nov 27
Waxing Gibbous
Nov 28
Full
Dec 6
Last Quarter
Dec 13
New
Dec 20
First Quarter

Hourly Weather History & Observations

Time (GMT) Temp. Windchill Dew Point Humidity Pressure Visibility Wind Dir Wind Speed Gust Speed Precip Events Conditions
2:50 AM 44 °F - 42 °F 89% 29.52 in - WSW 4.6 mph - -  
5:50 AM 44 °F - 42 °F 88%  in - North 3.5 mph - -  
7:50 AM 44.6 °F 42.2 °F 42.8 °F 93% 29.53 in 3.7 mi NW 4.6 mph - N/A   Mostly Cloudy
8:20 AM 44.6 °F 40.7 °F 42.8 °F 93% 29.56 in 3.7 mi NNW 6.9 mph - N/A   Mostly Cloudy
8:50 AM 46 °F - 43 °F 87% 29.58 in - North 6.9 mph - -  
8:50 AM 44.6 °F 40.7 °F 42.8 °F 93% 29.56 in 3.7 mi North 6.9 mph - N/A   Mostly Cloudy
9:20 AM 46.4 °F 42.4 °F 42.8 °F 87% 29.56 in 3.7 mi North 8.1 mph - N/A   Mostly Cloudy
9:50 AM 46.4 °F 42.9 °F 42.8 °F 87% 29.59 in 3.1 mi NNW 6.9 mph - N/A Rain Light Rain
10:20 AM 46.4 °F 42.9 °F 44.6 °F 93% 29.59 in 3.1 mi North 6.9 mph - N/A Rain Light Rain
10:50 AM 46.4 °F 42.4 °F 44.6 °F 93% 29.59 in 4.3 mi NNW 8.1 mph - N/A Rain Light Rain
11:20 AM 46.4 °F 41.1 °F 44.6 °F 93% 29.59 in 4.3 mi NNW 11.5 mph - N/A Rain Light Rain
11:50 AM 47 °F - 45 °F 89% 29.60 in - North 10.4 mph - -  
11:50 AM 46.4 °F 41.5 °F 44.6 °F 93% 29.59 in 2.8 mi North 10.4 mph - N/A Rain Rain
12:20 PM 46.4 °F 40.7 °F 44.6 °F 93% 29.59 in 6.2 mi North 12.7 mph - N/A Rain Rain
12:50 PM 46.4 °F 40.7 °F 44.6 °F 93% 29.59 in 6.2 mi North 12.7 mph - N/A Rain Light Rain
1:20 PM 46.4 °F 41.1 °F 44.6 °F 93% 29.62 in 6.2 mi North 11.5 mph - N/A   Mostly Cloudy
1:50 PM 46.4 °F 41.5 °F 44.6 °F 93% 29.62 in 6.2 mi North 10.4 mph - N/A   Mostly Cloudy
2:20 PM 46.4 °F 41.5 °F 44.6 °F 93% 29.62 in 6.2 mi North 10.4 mph - N/A   Mostly Cloudy
2:50 PM 47 °F - 44 °F 83% 29.65 in - North 11.5 mph - -  
2:50 PM 46.4 °F 41.1 °F 44.6 °F 93% 29.62 in 6.2 mi North 11.5 mph - N/A   Mostly Cloudy
3:20 PM 46.4 °F 40.7 °F 42.8 °F 87% 29.65 in 6.2 mi North 12.7 mph - N/A   Light Drizzle
3:50 PM 46.4 °F 40.4 °F 44.6 °F 93% 29.65 in 6.2 mi North 13.8 mph - N/A Rain Light Rain
4:20 PM 46.4 °F 39.5 °F 42.8 °F 87% 29.68 in 3.1 mi North 17.3 mph - N/A Rain Light Rain
4:50 PM 44.6 °F 37.8 °F 42.8 °F 93% 29.68 in 3.7 mi North 15.0 mph - N/A Rain Light Rain
5:20 PM 44.6 °F 37.8 °F 41.0 °F 87% 29.68 in 3.7 mi North 15.0 mph 26.5 mph N/A Rain Light Rain
5:50 PM 45 °F - 42 °F 83% 29.72 in - North 18.4 mph - -  
5:50 PM 44.6 °F 37.2 °F 41.0 °F 87% 29.71 in 4.3 mi North 17.3 mph - N/A   Mostly Cloudy
6:20 PM 44.6 °F 37.8 °F 41.0 °F 87% 29.71 in 6.2 mi North 15.0 mph - N/A   Mostly Cloudy
8:50 PM 45 °F - 39 °F 74% 29.78 in - North 15.0 mph - -  
11:50 PM 43 °F - 39 °F 81% 29.82 in - North 13.8 mph - -